Weather in Selenginsk

Russia / Republic of Buryatia     52°00′19″N   106°51′45″E
temp.,
°C
wind,
m/s
gust,
m/s
humid.,
%
clouds,
%
prec.,
mm/h
press.,
hPa
HPBL,
m
13 june, sun
sun1323:00+10se0069100 0.0 100918
02:00+7se1181100 0.0 100910
05:00+7wnw1180100 0.0 100810
08:00+8wnw2384100 0.6 1009173
11:00+13nnw434975 0.0 1008684
14:00+15nw454499 0.0 1007977
17:00+16nw3543100 0.0 10081027
20:00+12w377249 0.0 1009653
14 june, mon
mon1423:00+8wsw3596100 0.0 1012157
02:00+9wsw378498 0.1 1011428
05:00+9sw2382100 0.0 1010113
08:00+12w2464100 0.0 1009683
11:00+16wnw4450100 0.0 10081210
14:00+18nw2340100 0.0 10071358
17:00+19nnw2236100 0.0 10051466
20:00+13nw1172100 0.0 100623
15 june, tue
tue1523:00+11w3668100 0.0 1009219
02:00+9wsw3696100 0.8 1012323
05:00+7w3995100 3.8 1015733
08:00+7wnw588243 3.9 1017891
11:00+11wnw685390 0.1 10161745
14:00+15wnw59395 0.2 10142109
17:00+15wnw69376 0.0 10132226
20:00+12wsw494925 0.0 1014523
16 june, wed
wed1623:00+6sw33732 0.1 101643
02:00+5sw228421 0.1 101515
05:00+5wsw2290100 0.1 101642
08:00+8w488888 1.4 1015847
11:00+7w4892100 1.2 1015772
14:00+11wnw5859100 1.8 10141628
17:00+13w585684 0.1 10131280
20:00+10wsw3574100 0.1 1014244
17 june, thu
thu1723:00+9wsw2575100 0.0 1014138
02:00+9wsw357698 0.0 1014178
05:00+9wsw357820 0.0 1014175
08:00+12w48658 0.0 1013607
11:00+16wnw475157 0.0 10121367
14:00+17w484978 0.0 10101025
17:00+20wnw47394 0.0 10091144
20:00+15w23574 0.0 100866